Location: Kawakawa
(35.3830°S, 174.0670°E)
Time: 01:53:45
(UTC+13:00)

Altair - Pass Details

Date: 09 December 2019
Orbit: 1502 x 1682 km, 47.2° (Epoch: 27 January)

Event Time Altitude Azimuth Distance (km) Brightness Sun altitude
Rises 20:02:55 0° 253° (WSW) 4,948 12.7 4.1°
Reaches altitude 10° 20:08:43 10° 278° (W) 3,937 10.7 3.0°
Maximum altitude 20:12:29 13° 301° (WNW) 3,702 10.0 2.3°
Drops below altitude 10° 20:16:14 10° 323° (NW) 3,889 9.8 1.6°
Sets 20:21:58 0° 349° (N) 4,829 9.9 0.6°
